User: anonymous   Login
Location: Skalnate Pleso
(49.1889°N, 20.2450°E)
Time: 09:27:34
(UTC+01:00)
Language:

Iridium 45 - Orbit

View from above orbital plane
View from above orbital plane
View from above satellite
View from above satellite

Ground track
Ground track

The orbit data is extracted from the following two-line orbital elements,

1 25104U 97082A   15059.53741383  .00000156  00000-0  48826-4 0  9996
2 25104 087.0225 270.3076 0001998 093.8298 266.3127 14.34220282900025
Epoch (UTC): 28 February 2015 12:53:52
Eccentricity: 0.0001998
inclination: 87.0225°
perigee height: 776 km
apogee height: 779 km
right ascension of ascending node: 270.3076°
argument of perigee: 93.8298°
revolutions per day: 14.34220282
mean anomaly at epoch: 266.3127°
orbit number at epoch: 90002

The dashed part of the orbit path shows where the satellite is in the earth's shadow,  

DLR